{"data":{"norad_id":43259,"epoch":"2026-09-20T04:15:31.820832Z","epoch_age_seconds":46100,"freshness":"FRESH","line1":"1 43259U 18031A   26263.17745163  .00000154  00000+0  29489-4 0  9994","line2":"2 43259  98.0432 325.3897 0004156  73.2102 286.9563 14.76484883456714","mean_motion":14.76484883,"eccentricity":0.0004156,"inclination_deg":98.0432,"raan_deg":325.3897,"arg_perigee_deg":73.2102,"mean_anomaly_deg":286.9563,"bstar":2.9489e-5,"rev_number":45671,"period_min":97.528936230903,"perigee_km":637.52473664582,"apogee_km":643.3585792263,"semimajor_km":7018.5786579361,"source":"CELESTRAK","updated_at":"2026-09-20T09:00:33.972244Z"}}